MH1224 VNPL-VNLK

Flight info

Callsign MH1224
Flight time 0h 1m
Altitude 11000
Route 2740N08642E DCT 274031N0864238E
Aircraft AS50/L-SFG/C

Departure

Time 2026-04-28 17:34
Airport Phaplu Airport (VNPL)

Arrival

Time 2026-04-28 17:35
Airport Tenzing-Hillary Airport (VNLK)
Time Latitude Longitude Altitude Speed Heading
2026-04-28 17:22 27.51656 86.58483 8093 ft 0 kts 202°
2026-04-28 17:28 27.51655 86.58482 8109 ft 0 kts 142°
2026-04-28 17:28 27.51656 86.58483 8093 ft 0 kts 114°
2026-04-28 17:32 27.51854 86.58441 8250 ft 33 kts 18°
2026-04-28 17:32 27.52104 86.58495 8139 ft 48 kts
2026-04-28 17:32 27.52508 86.58543 8300 ft 64 kts
2026-04-28 17:32 27.52882 86.58615 8263 ft 38 kts 347°
2026-04-28 17:33 27.52812 86.58541 8444 ft 44 kts 150°
2026-04-28 17:33 27.52913 86.58827 8135 ft 41 kts 34°
2026-04-28 17:33 27.53244 86.58661 8262 ft 57 kts 342°
2026-04-28 17:33 27.53383 86.58599 8266 ft 66 kts 335°
2026-04-28 17:34 27.54219 86.58231 8335 ft 98 kts 335°
2026-04-28 17:34 27.54867 86.57889 8252 ft 109 kts 342°
2026-04-28 17:34 27.55536 86.58020 8548 ft 101 kts 21°
2026-04-28 17:34 27.56209 86.58498 8552 ft 117 kts 35°
2026-04-28 17:35 27.56814 86.58962 8746 ft 91 kts 23°
2026-04-28 17:35 27.57316 86.59157 9126 ft 60 kts 347°
2026-04-28 17:35 27.57476 86.58936 9552 ft 20 kts 246°
2026-04-28 17:35 27.57661 86.58997 9696 ft 44 kts
2026-04-28 17:36 27.57978 86.59213 9867 ft 66 kts 25°
2026-04-28 17:36 27.58454 86.59508 9942 ft 79 kts 28°
2026-04-28 17:36 27.58926 86.59808 10150 ft 76 kts 25°
2026-04-28 17:36 27.59270 86.60032 10602 ft 55 kts 27°
2026-04-28 17:37 27.59650 86.60305 10757 ft 75 kts 28°
2026-04-28 17:37 27.60058 86.60655 10936 ft 75 kts 38°
2026-04-28 17:37 27.60477 86.60996 10857 ft 78 kts 38°
2026-04-28 17:37 27.60948 86.61409 10703 ft 88 kts 37°
2026-04-28 17:38 27.61424 86.61791 10954 ft 76 kts 25°
2026-04-28 17:38 27.61953 86.62187 10925 ft 104 kts 35°
2026-04-28 17:38 27.62072 86.62577 11068 ft 38 kts 127°
2026-04-28 17:38 27.62216 86.63202 11336 ft 76 kts 54°
2026-04-28 17:39 27.62545 86.63729 11493 ft 88 kts 46°
2026-04-28 17:39 27.62971 86.64250 11708 ft 82 kts 35°
2026-04-28 17:39 27.63990 86.64971 12104 ft 96 kts 30°
2026-04-28 17:40 27.64379 86.65213 12263 ft 97 kts 21°
2026-04-28 17:40 27.65029 86.65547 12132 ft 123 kts 38°
2026-04-28 17:40 27.65114 86.66080 12002 ft 39 kts 327°
2026-04-28 17:40 27.65285 86.66616 11616 ft 59 kts 52°
2026-04-28 17:41 27.65470 86.66783 11930 ft 47 kts 31°
2026-04-28 17:41 27.65750 86.67156 12105 ft 69 kts 54°
2026-04-28 17:41 27.66069 86.67646 12064 ft 106 kts 59°
2026-04-28 17:41 27.66449 86.68489 11855 ft 131 kts 63°
2026-04-28 17:42 27.66854 86.69555 11261 ft 147 kts 80°
2026-04-28 17:42 27.67263 86.70614 10357 ft 155 kts 56°
2026-04-28 17:42 27.67887 86.71610 9469 ft 166 kts 56°
2026-04-28 17:42 27.68478 86.72564 9093 ft 109 kts 56°
2026-04-28 17:43 27.68662 86.72824 9225 ft 10 kts 21°
2026-04-28 17:43 27.68692 86.72876 9300 ft 27 kts 54°
2026-04-28 17:43 27.68695 86.72881 9314 ft 4 kts 300°
2026-04-28 17:43 27.68667 86.72870 9252 ft 29 kts 69°
2026-04-28 17:44 27.68723 86.72881 9246 ft 0 kts 69°
2026-04-28 17:44 27.68722 86.72880 9243 ft 2 kts 54°
2026-04-28 17:44 27.68722 86.72882 9242 ft 0 kts 81°
2026-04-28 17:45 27.68736 86.72927 9342 ft 18 kts 74°
2026-04-28 17:45 27.68751 86.73148 9392 ft 23 kts 112°
2026-04-28 17:45 27.68778 86.73096 9400 ft 33 kts 241°
2026-04-28 17:45 27.68691 86.72955 9418 ft 20 kts 254°
2026-04-28 17:46 27.68713 86.72861 9239 ft 6 kts 252°
2026-04-28 17:46 27.68727 86.72887 9241 ft 0 kts 134°
2026-04-28 17:46 27.68723 86.72883 9241 ft 0 kts 105°